TimeEDT,TemperatureF,Dew PointF,Humidity,Sea Level PressureIn,VisibilityMPH,Wind Direction,Wind SpeedMPH,Gust SpeedMPH,PrecipitationIn,Events,Conditions,WindDirDegrees,DateUTC
12:15 AM,66.2,64.4,94,29.70,7.0,WSW,5.8,-,N/A,,Partly Cloudy,240,2013-06-26 04:15:00
12:35 AM,66.2,66.2,100,29.69,6.0,WNW,5.8,-,N/A,,Partly Cloudy,290,2013-06-26 04:35:00
12:55 AM,66.2,66.2,100,29.69,7.0,West,4.6,-,N/A,,Mostly Cloudy,280,2013-06-26 04:55:00
1:15 AM,66.2,66.2,100,29.69,7.0,WNW,6.9,-,N/A,,Mostly Cloudy,300,2013-06-26 05:15:00
1:35 AM,68.0,66.2,94,29.69,8.0,WNW,4.6,-,N/A,,Scattered Clouds,300,2013-06-26 05:35:00
1:55 AM,68.0,68.0,100,29.69,7.0,NNW,3.5,-,N/A,,Mostly Cloudy,330,2013-06-26 05:55:00
2:15 AM,68.0,66.2,94,29.69,9.0,North,3.5,-,N/A,,Mostly Cloudy,10,2013-06-26 06:15:00
2:35 AM,68.0,66.2,94,29.68,6.0,Calm,Calm,-,N/A,,Mostly Cloudy,0,2013-06-26 06:35:00
3:15 AM,66.2,64.4,94,29.69,5.0,East,3.5,-,N/A,,Overcast,100,2013-06-26 07:15:00
3:35 AM,66.2,64.4,94,29.70,5.0,ESE,4.6,-,N/A,,Overcast,120,2013-06-26 07:35:00
3:55 AM,60.8,60.8,100,29.72,1.0,SSE,4.6,-,0.02,,Overcast,150,2013-06-26 07:55:00
4:15 AM,60.8,59.0,94,29.72,3.0,Calm,Calm,-,0.02,,Overcast,0,2013-06-26 08:15:00
4:35 AM,60.8,60.8,100,29.71,3.0,Calm,Calm,-,0.03,,Overcast,0,2013-06-26 08:35:00
4:55 AM,60.8,59.0,94,29.71,5.0,Calm,Calm,-,0.03,,Overcast,0,2013-06-26 08:55:00
5:15 AM,62.6,62.6,100,29.70,3.0,Calm,Calm,-,N/A,,Overcast,0,2013-06-26 09:15:00
5:35 AM,62.6,62.6,100,29.70,0.5,Calm,Calm,-,N/A,,Overcast,0,2013-06-26 09:35:00
5:55 AM,62.6,62.6,100,29.71,0.2,Calm,Calm,-,N/A,,Overcast,0,2013-06-26 09:55:00
6:35 AM,64.4,62.6,94,29.71,2.0,WNW,3.5,-,N/A,,Overcast,300,2013-06-26 10:35:00
6:55 AM,64.4,62.6,94,29.72,3.0,WNW,4.6,-,N/A,,Overcast,290,2013-06-26 10:55:00
7:15 AM,66.2,66.2,100,29.72,4.0,WNW,3.5,-,N/A,,Overcast,300,2013-06-26 11:15:00
7:35 AM,66.2,64.4,94,29.72,2.5,Calm,Calm,-,N/A,,Overcast,0,2013-06-26 11:35:00
7:55 AM,68.0,68.0,100,29.72,1.0,Calm,Calm,-,N/A,,Overcast,0,2013-06-26 11:55:00
8:15 AM,69.8,68.0,94,29.73,5.0,West,4.6,-,N/A,,Overcast,270,2013-06-26 12:15:00
8:35 AM,69.8,69.8,100,29.73,7.0,WSW,3.5,-,N/A,,Overcast,240,2013-06-26 12:35:00
8:55 AM,71.6,69.8,94,29.73,10.0,NNW,3.5,-,N/A,,Scattered Clouds,330,2013-06-26 12:55:00
9:15 AM,73.4,71.6,94,29.74,10.0,Calm,Calm,-,N/A,,Scattered Clouds,0,2013-06-26 13:15:00
9:35 AM,73.4,71.6,94,29.74,10.0,North,4.6,-,N/A,,Partly Cloudy,10,2013-06-26 13:35:00
10:15 AM,75.2,69.8,83,29.76,10.0,NE,10.4,-,N/A,,Partly Cloudy,40,2013-06-26 14:15:00
10:55 AM,73.4,69.8,88,29.76,10.0,NE,6.9,-,N/A,,Clear,40,2013-06-26 14:55:00
11:15 AM,71.6,68.0,88,29.76,10.0,NNE,6.9,-,N/A,,Clear,30,2013-06-26 15:15:00
11:35 AM,73.4,69.8,88,29.76,10.0,NNE,8.1,16.1,N/A,,Clear,30,2013-06-26 15:35:00
11:55 AM,73.4,68.0,83,29.76,10.0,NNE,10.4,-,N/A,,Clear,30,2013-06-26 15:55:00
12:15 PM,73.4,68.0,83,29.77,10.0,NE,8.1,-,N/A,,Partly Cloudy,40,2013-06-26 16:15:00
12:35 PM,71.6,68.0,88,29.77,10.0,NNE,12.7,17.3,N/A,,Scattered Clouds,30,2013-06-26 16:35:00
12:55 PM,71.6,68.0,88,29.77,10.0,NNE,11.5,17.3,N/A,,Mostly Cloudy,30,2013-06-26 16:55:00
1:15 PM,73.4,69.8,88,29.78,10.0,NNE,6.9,-,N/A,,Overcast,30,2013-06-26 17:15:00
1:35 PM,69.8,64.4,83,29.79,8.0,ENE,15.0,21.9,N/A,,Mostly Cloudy,70,2013-06-26 17:35:00
1:55 PM,64.4,60.8,88,29.79,6.0,East,12.7,-,N/A,,Overcast,90,2013-06-26 17:55:00
2:15 PM,62.6,59.0,88,29.79,8.0,East,15.0,20.7,N/A,,Overcast,80,2013-06-26 18:15:00
2:35 PM,62.6,59.0,88,29.79,10.0,East,11.5,-,N/A,,Overcast,90,2013-06-26 18:35:00
2:55 PM,62.6,59.0,88,29.80,9.0,East,10.4,-,N/A,,Overcast,80,2013-06-26 18:55:00
3:15 PM,62.6,59.0,88,29.81,10.0,ENE,8.1,-,N/A,,Overcast,70,2013-06-26 19:15:00
3:35 PM,62.6,59.0,88,29.82,8.0,East,8.1,-,N/A,,Overcast,80,2013-06-26 19:35:00
3:55 PM,60.8,59.0,94,29.81,7.0,East,9.2,-,N/A,,Overcast,80,2013-06-26 19:55:00
4:15 PM,60.8,59.0,94,29.82,7.0,East,8.1,-,N/A,,Overcast,90,2013-06-26 20:15:00
4:35 PM,60.8,59.0,94,29.82,7.0,East,8.1,-,0.01,,Overcast,100,2013-06-26 20:35:00
4:55 PM,60.8,57.2,88,29.82,5.0,ESE,6.9,-,0.01,,Overcast,110,2013-06-26 20:55:00
5:15 PM,57.2,57.2,100,29.82,5.0,East,6.9,-,N/A,,Overcast,100,2013-06-26 21:15:00
5:35 PM,57.2,55.4,94,29.83,4.0,ESE,8.1,-,0.01,,Overcast,110,2013-06-26 21:35:00
5:55 PM,57.2,57.2,100,29.83,3.0,East,5.8,-,0.02,,Overcast,80,2013-06-26 21:55:00
6:15 PM,57.2,57.2,100,29.83,4.0,East,4.6,-,0.01,,Overcast,90,2013-06-26 22:15:00
6:35 PM,57.2,57.2,100,29.83,5.0,East,5.8,-,0.02,,Overcast,80,2013-06-26 22:35:00
6:55 PM,57.2,57.2,100,29.83,5.0,East,5.8,-,0.03,,Overcast,80,2013-06-26 22:55:00
7:15 PM,59.0,57.2,94,29.83,7.0,ENE,8.1,-,N/A,,Overcast,70,2013-06-26 23:15:00
7:35 PM,59.0,57.2,94,29.84,9.0,East,8.1,-,0.01,,Overcast,90,2013-06-26 23:35:00
7:55 PM,57.2,57.2,100,29.84,8.0,ESE,5.8,-,0.01,,Overcast,110,2013-06-26 23:55:00
8:15 PM,57.2,57.2,100,29.84,8.0,ESE,8.1,-,0.01,,Overcast,110,2013-06-27 00:15:00
8:35 PM,57.2,57.2,100,29.83,10.0,ESE,10.4,-,0.01,,Overcast,110,2013-06-27 00:35:00
8:55 PM,57.2,55.4,94,29.82,10.0,East,9.2,-,0.02,,Overcast,90,2013-06-27 00:55:00
9:15 PM,55.4,55.4,100,29.87,7.0,NW,3.5,-,N/A,,Overcast,320,2013-06-27 01:15:00
9:35 PM,57.2,55.4,94,29.87,10.0,NE,6.9,-,N/A,,Overcast,50,2013-06-27 01:35:00
9:55 PM,59.0,57.2,94,29.88,10.0,NNE,4.6,-,N/A,,Overcast,20,2013-06-27 01:55:00
10:15 PM,59.0,57.2,94,29.86,10.0,East,8.1,-,N/A,,Overcast,90,2013-06-27 02:15:00
10:35 PM,-9999,-9999,N/A,29.86,10.0,East,9.2,-,N/A,,Mostly Cloudy,90,2013-06-27 02:35:00
10:55 PM,57.2,55.4,94,29.87,10.0,East,6.9,-,N/A,,Mostly Cloudy,80,2013-06-27 02:55:00
11:15 PM,57.2,55.4,94,29.87,10.0,East,6.9,-,N/A,,Mostly Cloudy,90,2013-06-27 03:15:00
11:35 PM,57.2,55.4,94,29.88,10.0,ENE,6.9,-,N/A,,Overcast,70,2013-06-27 03:35:00
11:55 PM,57.2,55.4,94,29.87,10.0,East,8.1,-,N/A,,Overcast,90,2013-06-27 03:55:00